Weather observations for the past three days for
Torrance, Zamperini Field Airport
| Date | Time (pdt) | Wind (kph) | Vis. (km) | Weather | Sky Cond. | Temperature (ºC) | Relative Humidity | Wind Chill (°C) | Heat Index (°C) | Pressure | Precipitation (cm) | ||||||
|---|---|---|---|---|---|---|---|---|---|---|---|---|---|---|---|---|---|
| Air | Dwpt | 6 hour | altimeter (cm) | sea level (mb) | 1 hr | 3 hr | 6 hr | ||||||||||
| Max. | Min. | ||||||||||||||||
| 04 | 03:15 | SW 7 | 16.09 | Fair | CLR | 17.6 | 15.6 | 88% | 75.9 | 0.0 | |||||||
| 04 | 02:55 | SW 7 | 16.09 | Fair | CLR | 17.8 | 15.6 | 87% | 75.92 | 0.0 | |||||||
| 04 | 02:35 | SW 7 | 16.09 | Fair | CLR | 17.7 | 15.7 | 88% | 75.92 | 0.0 | |||||||
| 04 | 02:15 | Calm | 16.09 | Fair | CLR | 17.6 | 15.6 | 88% | 75.92 | 0.0 | |||||||
| 04 | 01:55 | Calm | 16.09 | Fair | CLR | 18 | 15.6 | 86% | 75.92 | 0.0 | |||||||
| 04 | 01:15 | SW 6 | 16.09 | Fair | CLR | 18.3 | 15.6 | 84% | 75.95 | 0.0 | |||||||
| 04 | 00:55 | Calm | 16.09 | Fair | CLR | 18.6 | 15.1 | 80% | 75.95 | 0.0 | |||||||
| 04 | 00:15 | SW 7 | 16.09 | Fair | CLR | 18.8 | 15.8 | 83% | 75.92 | 0.0 | |||||||
| 03 | 23:55 | SW 7 | 16.09 | Fair | CLR | 19 | 16.2 | 84% | 75.92 | 0.0 | |||||||
| 03 | 23:35 | SW 6 | 16.09 | Fair | CLR | 19.2 | 16.3 | 83% | 75.95 | 0.0 | |||||||
| 03 | 23:15 | SW 6 | 16.09 | Fair | CLR | 19.4 | 16.7 | 84% | 75.92 | 0.0 | |||||||
| 03 | 22:55 | Calm | 16.09 | Fair | CLR | 19.7 | 17.1 | 24.4 | 19.7 | 85% | 75.92 | 0.0 | |||||
| 03 | 22:35 | W 6 | 16.09 | Fair | CLR | 19.8 | 17.2 | 85% | 75.92 | 0.0 | |||||||
| 03 | 22:15 | Calm | 16.09 | Fair | CLR | 19.9 | 17.3 | 85% | 75.92 | 0.0 | |||||||
| 03 | 21:55 | W 7 | 16.09 | Fair | CLR | 20 | 17.3 | 85% | 75.92 | 0.0 | |||||||
| 03 | 21:35 | W 9 | 16.09 | Fair | CLR | 20.1 | 17.3 | 84% | 75.92 | 0.0 | |||||||
| 03 | 21:15 | NW 9 | 16.09 | Fair | CLR | 20.2 | 17.3 | 84% | 75.92 | 0.0 | |||||||
| 03 | 20:55 | NW 9 | 16.09 | Fair | CLR | 20.3 | 16.7 | 80% | 75.9 | 0.0 | |||||||
| 03 | 20:35 | NW 11 | 16.09 | Fair | CLR | 20.4 | 16.8 | 80% | 75.9 | 0.0 | |||||||
| 03 | 20:15 | NW 13 | 16.09 | Fair | CLR | 20.6 | 17.4 | 82% | 75.87 | 0.0 | |||||||
| 03 | 19:47 | W 11 | 16.09 | A Few Clouds | FEW016 | 21 | 18 | 83% | 75.87 | 0.0 | |||||||
| 03 | 18:47 | W 15 | 16.09 | A Few Clouds | FEW010 | 21 | 15 | 69% | 75.87 | 0.0 | |||||||
| 03 | 17:47 | W 19 | 16.09 | A Few Clouds | FEW010 | 23 | 16 | 65% | 75.87 | 0.0 | |||||||
| 03 | 16:47 | NW 22 | 16.09 | A Few Clouds | FEW010 | 24 | 17 | 65% | 25 | 75.9 | 0.0 | ||||||
| 03 | 15:47 | NW 24 | 16.09 | Fair | CLR | 25 | 17 | 61% | 26 | 75.92 | 0.0 | ||||||
| 03 | 14:47 | SW 15 | 16.09 | Fair | CLR | 26 | 16 | 54% | 27 | 75.92 | 0.0 | ||||||
| 03 | 13:47 | S 9 | 16.09 | Fair | CLR | 26 | 16 | 54% | 27 | 75.97 | 0.0 | ||||||
| 03 | 12:47 | S 13 | 16.09 | Partly Cloudy | SCT033 | 26 | 16 | 54% | 27 | 76 | 0.0 | ||||||
| 03 | 11:47 | SE 19 | 16.09 | Partly Cloudy | SCT033 | 26 | 16 | 54% | 27 | 76.07 | 0.0 | ||||||
| 03 | 10:47 | Calm | 16.09 | Partly Cloudy | SCT020 | 24 | 16 | 61% | 25 | 76.07 | 0.0 | ||||||
| 03 | 09:47 | Calm | 16.09 | Partly Cloudy | SCT020 | 22 | 16 | 69% | 76.07 | 0.0 | |||||||
| 03 | 08:47 | E 6 | 16.09 | Mostly Cloudy | BKN021 | 22 | 17 | 73% | 76.1 | 0.0 | |||||||
| 03 | 07:54 | Calm | 16.09 | Mostly Cloudy | BKN018 BKN020 | 20 | 17 | 83% | 76.1 | 0.0 | |||||||
| 03 | 06:55 | SW 6 | 16.09 | Mostly Cloudy | BKN021 | 18.6 | 16.7 | 89% | 76.05 | 0.0 | |||||||
| 03 | 06:50 | SW 6 | 16.09 | Mostly Cloudy | BKN021 | 19 | 17 | 88% | 76.05 | 0.0 | |||||||
| 03 | 06:35 | Calm | 16.09 | Mostly Cloudy | BKN021 | 18.5 | 16.7 | 89% | 76.05 | 0.0 | |||||||
| 03 | 06:15 | Calm | 16.09 | Partly Cloudy | SCT021 | 18.4 | 16.8 | 90% | 76.05 | 0.0 | |||||||
| 03 | 05:55 | Calm | 16.09 | Mostly Cloudy | BKN020 | 18 | 16.7 | 92% | 76.02 | 0.0 | |||||||
| 03 | 05:35 | Calm | 16.09 | Partly Cloudy | SCT020 | 18.6 | 16.7 | 89% | 76.02 | 0.0 | |||||||
| 03 | 05:15 | Calm | 16.09 | Mostly Cloudy | BKN020 | 18 | 16.6 | 92% | 76.02 | 0.0 | |||||||
| 03 | 04:55 | Calm | 16.09 | Fair | CLR | 18.2 | 16.8 | 20.7 | 18.1 | 92% | 76.05 | 0.0 | |||||
| 03 | 04:35 | W 7 | 16.09 | Fair | CLR | 18.5 | 17.1 | 92% | 76.05 | 0.0 | |||||||
| 03 | 04:15 | SW 7 | 16.09 | Fair | CLR | 18.3 | 16.9 | 92% | 76.05 | 0.0 | |||||||
| 03 | 03:55 | Calm | 16.09 | Fair | CLR | 18.3 | 17 | 92% | 76.05 | 0.0 | |||||||
| 03 | 03:35 | Calm | 16.09 | Fair | CLR | 18.9 | 17.2 | 90% | 76.05 | 0.0 | |||||||
| 03 | 03:15 | SW 6 | 16.09 | Fair | CLR | 19.2 | 17.2 | 88% | 76.07 | 0.0 | |||||||
| 03 | 02:55 | Calm | 16.09 | Fair | CLR | 18.8 | 16.8 | 88% | 76.07 | 0.0 | |||||||
| 03 | 02:35 | Calm | 16.09 | Fair | CLR | 19.2 | 17.2 | 88% | 76.07 | 0.0 | |||||||
| 03 | 02:15 | S 6 | 16.09 | Fair | CLR | 19.2 | 17.1 | 88% | 76.07 | 0.0 | |||||||
| 03 | 01:55 | SW 6 | 16.09 | Fair | CLR | 19.9 | 17.7 | 87% | 76.1 | 0.0 | |||||||
| 03 | 01:35 | Calm | 16.09 | Fair | CLR | 20 | 17.7 | 87% | 76.1 | 0.0 | |||||||
| 03 | 01:15 | SW 6 | 16.09 | Fair | CLR | 20 | 17.6 | 86% | 76.1 | 0.0 | |||||||
| 03 | 00:55 | NW 7 | 16.09 | Fair | CLR | 20.2 | 17.7 | 86% | 76.12 | 0.0 | |||||||
| 03 | 00:35 | Calm | 16.09 | Fair | CLR | 20.2 | 17.6 | 85% | 76.12 | 0.0 | |||||||
| 03 | 00:15 | W 7 | 16.09 | Fair | CLR | 20.3 | 17.5 | 84% | 76.1 | 0.0 | |||||||
| 02 | 23:55 | W 9 | 16.09 | Fair | CLR | 20.3 | 17.3 | 83% | 76.1 | 0.0 | |||||||
| 02 | 23:35 | W 7 | 16.09 | Fair | CLR | 20.6 | 16.7 | 78% | 76.1 | 0.0 | |||||||
| 02 | 23:15 | W 6 | 16.09 | Fair | CLR | 20.7 | 16.8 | 78% | 76.1 | 0.0 | |||||||
| 02 | 22:55 | W 7 | 16.09 | Fair | CLR | 20.8 | 17.2 | 23 | 20.8 | 80% | 76.1 | 0.0 | |||||
| 02 | 22:35 | W 17 | 14.48 | Fair | CLR | 20.9 | 17.3 | 80% | 76.07 | 0.0 | |||||||
| 02 | 22:15 | NW 22 | 16.09 | Fair | CLR | 20.9 | 17.2 | 79% | 76.07 | 0.0 | |||||||
| 02 | 21:55 | W 20 | 16.09 | Fair | CLR | 21 | 16.9 | 78% | 76.07 | 0.0 | |||||||
| 02 | 21:35 | W 20 G 33 | 16.09 | Fair | CLR | 21 | 17.1 | 79% | 76.07 | 0.0 | |||||||
| 02 | 21:15 | W 17 G 30 | 16.09 | Fair | CLR | 21 | 16.8 | 77% | 76.07 | 0.0 | |||||||
| 02 | 20:55 | W 17 | 16.09 | Fair | CLR | 21 | 16.3 | 75% | 76.05 | 0.0 | |||||||
| 02 | 20:35 | W 11 | 16.09 | Fair | CLR | 20.9 | 15.9 | 73% | 76.07 | 0.0 | |||||||
| 02 | 20:15 | W 7 | 16.09 | Fair | CLR | 21 | 15.7 | 72% | 76.05 | 0.0 | |||||||
| 02 | 19:47 | W 11 | 16.09 | Fair | CLR | 21 | 15 | 69% | 76.07 | 0.0 | |||||||
| 02 | 18:47 | W 13 | 16.09 | Fair | CLR | 22 | 15 | 65% | 76.05 | 0.0 | |||||||
| 02 | 17:47 | W 19 G 30 | 16.09 | Fair | CLR | 22 | 16 | 69% | 76.05 | 0.0 | |||||||
| 02 | 16:47 | W 20 G 37 | 16.09 | A Few Clouds | FEW010 | 23 | 17 | 69% | 76.07 | 0.0 | |||||||
| 02 | 15:52 | NW 26 | 16.09 | Fair | CLR | 24 | 16 | 61% | 25 | 76.1 | 0.0 | ||||||
| 02 | 14:51 | NW 24 | 16.09 | Fair | CLR | 25 | 13 | 47% | 26 | 76.12 | 0.0 | ||||||
| 02 | 13:49 | NW 26 | 16.09 | Fair | CLR | 25 | 15 | 54% | 26 | 76.17 | 0.0 | ||||||
| 02 | 10:47 | Calm | 16.09 | A Few Clouds | FEW030 | 23 | 16 | 65% | 76.25 | 0.0 | |||||||
| 02 | 09:47 | Vrbl 9 | 16.09 | Partly Cloudy | SCT030 | 22 | 16 | 69% | 76.23 | 0.0 | |||||||
| 02 | 08:50 | SE 9 | 16.09 | Partly Cloudy | FEW018 SCT030 | 21 | 16 | 73% | 76.2 | 0.0 | |||||||
| 02 | 07:47 | Calm | 16.09 | A Few Clouds | FEW030 | 19 | 16 | 83% | 76.2 | 0.0 | |||||||
| 02 | 06:55 | SW 6 | 16.09 | Fair | CLR | 16.4 | 15.1 | 92% | 76.17 | 0.0 | |||||||
| 02 | 06:49 | Calm | 16.09 | Fair | CLR | 16 | 15 | 94% | 76.17 | 0.0 | |||||||
| 02 | 06:35 | Calm | 12.87 | Fair | CLR | 16.3 | 15 | 92% | 76.15 | 0.0 | |||||||
| 02 | 06:15 | SW 6 | 12.87 | Fair | CLR | 16.3 | 15 | 92% | 76.15 | 0.0 | |||||||
| 02 | 05:55 | Calm | 16.09 | Fair | CLR | 16.1 | 14.9 | 93% | 76.15 | 0.0 | |||||||
| 02 | 05:35 | SW 7 | 16.09 | Fair | CLR | 16.4 | 14.9 | 91% | 76.15 | 0.0 | |||||||
| 02 | 05:15 | SW 6 | 16.09 | Fair | CLR | 16.3 | 14.8 | 91% | 76.15 | 0.0 | |||||||
| 02 | 04:55 | SW 7 | 16.09 | Fair | CLR | 16.4 | 14.6 | 18.8 | 16.4 | 89% | 76.15 | 0.0 | |||||
| 02 | 04:35 | SW 6 | 16.09 | Fair | CLR | 16.6 | 14.6 | 88% | 76.17 | 0.0 | |||||||
| 02 | 04:15 | Calm | 16.09 | Fair | CLR | 16.8 | 14.8 | 88% | 76.17 | 0.0 | |||||||
| 02 | 03:55 | Calm | 16.09 | Fair | CLR | 16.8 | 14.8 | 88% | 76.15 | 0.0 | |||||||
| 02 | 03:35 | S 6 | 16.09 | Fair | CLR | 16.8 | 14.7 | 88% | 76.15 | 0.0 | |||||||
| 02 | 03:15 | Calm | 16.09 | Fair | CLR | 17 | 14.9 | 88% | 76.15 | 0.0 | |||||||
| 02 | 02:55 | Calm | 16.09 | Fair | CLR | 17.3 | 15.1 | 87% | 76.17 | 0.0 | |||||||
| 02 | 02:35 | Calm | 16.09 | Fair | CLR | 17.1 | 14.9 | 87% | 76.17 | 0.0 | |||||||
| 02 | 02:15 | Calm | 16.09 | Fair | CLR | 16.8 | 14.8 | 88% | 76.17 | 0.0 | |||||||
| 02 | 01:55 | SW 7 | 16.09 | Fair | CLR | 17.9 | 15.3 | 85% | 76.17 | 0.0 | |||||||
| 02 | 01:35 | SW 7 | 16.09 | Fair | CLR | 17.3 | 15 | 86% | 76.17 | 0.0 | |||||||
| 02 | 01:15 | Calm | 16.09 | Fair | CLR | 16.9 | 14.7 | 87% | 76.2 | 0.0 | |||||||
| 02 | 00:55 | SW 7 | 16.09 | Fair | CLR | 18 | 15.2 | 84% | 76.17 | 0.0 | |||||||
| 02 | 00:15 | SW 9 | 16.09 | Fair | CLR | 18.2 | 15.3 | 83% | 76.15 | 0.0 | |||||||
| 01 | 23:55 | SW 7 | 16.09 | Fair | CLR | 18.3 | 15.2 | 82% | 76.15 | 0.0 | |||||||
| 01 | 23:35 | SW 7 | 16.09 | Fair | CLR | 18.5 | 15.3 | 82% | 76.15 | 0.0 | |||||||
| 01 | 23:15 | SW 6 | 16.09 | Fair | CLR | 18.5 | 15.2 | 81% | 76.15 | 0.0 | |||||||
| 01 | 22:55 | SW 6 | 16.09 | Fair | CLR | 19 | 15.1 | 22.7 | 19 | 78% | 76.15 | 0.0 | |||||
| 01 | 22:35 | Calm | 16.09 | Fair | CLR | 19.4 | 15.2 | 77% | 76.15 | 0.0 | |||||||
| 01 | 22:15 | Calm | 16.09 | Fair | CLR | 19.5 | 15.1 | 76% | 76.15 | 0.0 | |||||||
| 01 | 21:55 | SW 6 | 16.09 | Fair | CLR | 20.3 | 15.1 | 72% | 76.12 | 0.0 | |||||||
| 01 | 21:35 | Vrbl 7 | 16.09 | Fair | CLR | 20.5 | 14.7 | 70% | 76.12 | 0.0 | |||||||
| 01 | 21:15 | W 11 | 16.09 | Fair | CLR | 20.5 | 14.8 | 70% | 76.1 | 0.0 | |||||||
| 01 | 20:55 | W 13 | 16.09 | Fair | CLR | 20.2 | 16 | 77% | 76.07 | 0.0 | |||||||
| 01 | 20:35 | NW 13 | 16.09 | Fair | CLR | 20.3 | 16.4 | 78% | 76.07 | 0.0 | |||||||
| 01 | 20:15 | NW 19 | 16.09 | Fair | CLR | 20.5 | 15.8 | 75% | 76.05 | 0.0 | |||||||
| 01 | 19:50 | W 13 | 16.09 | Fair | CLR | 20 | 16 | 78% | 76.05 | 0.0 | |||||||
| 01 | 18:50 | W 17 | 16.09 | Fair | CLR | 21 | 16 | 73% | 76.02 | 0.0 | |||||||
| 01 | 16:47 | NW 19 | 16.09 | A Few Clouds | FEW020 | 22 | 17 | 73% | 76.07 | 0.0 | |||||||
| 01 | 15:47 | NW 26 | 16.09 | Fair | CLR | 24 | 17 | 65% | 25 | 76.07 | 0.0 | ||||||
| 01 | 14:47 | NW 24 | 16.09 | Fair | CLR | 24 | 17 | 65% | 25 | 76.1 | 0.0 | ||||||
| 01 | 13:47 | NW 30 | 16.09 | Fair | CLR | 25 | 17 | 61% | 26 | 76.12 | 0.0 | ||||||
| 01 | 12:50 | NW 26 | 16.09 | Fair | CLR | 26 | 17 | 58% | 27 | 76.15 | 0.0 | ||||||
| 01 | 11:47 | NW 7 | 16.09 | Fair | CLR | 24 | 16 | 61% | 25 | 76.2 | 0.0 | ||||||
| 01 | 10:47 | W 13 | 16.09 | Fair | CLR | 23 | 17 | 69% | 76.2 | 0.0 | |||||||
| 01 | 09:47 | Calm | 16.09 | Partly Cloudy | SCT018 | 22 | 17 | 73% | 76.17 | 0.0 | |||||||
| 01 | 08:47 | Calm | 16.09 | Mostly Cloudy | BKN018 | 20 | 17 | 83% | 76.17 | 0.0 | |||||||
| 01 | 07:47 | W 7 | 16.09 | Mostly Cloudy | BKN016 | 20 | 17 | 83% | 76.15 | 0.0 | |||||||
| 01 | 06:55 | SW 6 | 14.48 | Mostly Cloudy | BKN017 | 18.3 | 16.3 | 88% | 76.1 | 0.0 | |||||||
| 01 | 06:48 | Calm | 16.09 | Mostly Cloudy | BKN017 | 28 | 16 | 48% | 28 | 76.1 | 0.0 | ||||||
| 01 | 06:35 | SW 6 | 14.48 | Partly Cloudy | SCT017 | 18.3 | 16.1 | 87% | 76.1 | 0.0 | |||||||
| 01 | 06:15 | SW 7 | 16.09 | Fair | CLR | 17.6 | 16.1 | 91% | 76.07 | 0.0 | |||||||
| 01 | 05:55 | SW 7 | 16.09 | A Few Clouds | FEW018 | 17.6 | 16 | 90% | 76.07 | 0.0 | |||||||
| 01 | 05:35 | SW 7 | 16.09 | A Few Clouds | FEW018 | 17.5 | 15.9 | 90% | 76.07 | 0.0 | |||||||
| 01 | 05:15 | SW 6 | 16.09 | Fair | CLR | 17.2 | 15.7 | 91% | 76.07 | 0.0 | |||||||
| 01 | 04:55 | SW 6 | 16.09 | Fair | CLR | 17.3 | 15.8 | 19.8 | 17.1 | 91% | 76.05 | 0.0 | |||||
| 01 | 04:35 | Calm | 16.09 | Fair | CLR | 17.2 | 15.6 | 90% | 76.05 | 0.0 | |||||||
| 01 | 04:15 | Calm | 16.09 | Fair | CLR | 17.5 | 15.8 | 90% | 76.05 | 0.0 | |||||||
| 01 | 03:35 | Calm | 16.09 | Fair | CLR | 17.9 | 15.9 | 88% | 76.07 | 0.0 | |||||||
| Date | Time (pdt) | Wind (kph) | Vis. (km) | Weather | Sky Cond. | Air | Dwpt | Max. | Min. | Relative Humidity | Wind Chill (°C) | Heat Index (°C) | altimeter (cm) | sea level (mb) | 1 hr | 3 hr | 6 hr |
| 6 hour | |||||||||||||||||
| Temperature (ºC) | Pressure | Precipitation (cm) | |||||||||||||||